Location: B?lite?ti
(46.2833°N, 22.7333°E)
Time: 16:38:31
(UTC+00:00)

Daily predictions for brighter satellites

Satellite Brightness Start Highest point End
(mag) Time Altitude Azimuth Time Altitude Azimuth Time Altitude Azimuth
Cosmos 773 Rocket 4.4 15:43:04 10° NNW 15:48:12 70° WSW 15:53:17 10° S
CZ-4B R/B 3.3 15:43:41 10° SSE 15:49:14 75° ENE 15:54:54 10° NNW
USA 234 4.2 15:43:36 10° NE 15:49:28 36° N 15:55:19 10° WNW
Okean 1-7 Rocket 4.2 15:47:21 10° SSE 15:51:31 37° E 15:55:42 10° NNE
SMAP 3.1 15:47:27 10° SSE 15:52:06 87° ENE 15:56:48 10° NNW
CZ-4C R/B 3.8 15:49:19 10° W 15:53:48 25° NNW 15:59:01 10° NNE
Lacrosse 5 1.9 15:49:09 10° NW 15:54:14 80° NE 15:59:17 10° SE
SL-24 R/B 4.2 15:51:14 10° SSE 15:55:38 83° ENE 16:00:27 10° NNW
Cosmos 1680 Rocket 4.2 15:55:22 10° N 16:00:05 33° ENE 16:04:45 10° ESE
COSMO-SKYMED 1 3.4 15:57:20 10° NNE 16:01:11 30° E 16:05:00 10° SSE
Cosmos 1315 Rocket 4.1 15:57:35 10° NNW 16:01:25 45° W 16:05:16 10° SSW
Cosmos 1939 Rocket 3.2 15:57:56 10° SE 16:01:51 46° ENE 16:05:46 10° N
Feng Yun 1-1 Rocket 4.5 15:59:29 10° SE 16:04:41 48° ENE 16:10:03 10° N
CORIOLIS 4.3 16:00:26 10° SSE 16:05:50 85° WSW 16:11:16 10° NNW
CREW DRAGON DEMO-1 DEB 2.6 16:06:40 10° WNW 16:09:34 87° NNE 16:12:27 10° ESE
Cosmos 2279 Rocket 4.3 16:04:05 10° N 16:10:22 77° W 16:16:35 10° S
IRS-1C Rocket 4.5 16:06:54 10° SE 16:11:46 40° ENE 16:16:39 10° N
H-2A R/B 2.9 16:08:20 10° ESE 16:12:28 26° ENE 16:16:43 10° N
CZ-4C R/B 4.1 16:09:30 10° N 16:12:30 41° WNW 16:15:31 10° SW
CZ-2D R/B 3.7 16:09:29 10° SE 16:13:05 39° ENE 16:16:41 10° N
ISS -3.7 16:10:09 10° WSW 16:13:32 79° NNW 16:16:27 13° ENE
Cosmos 2263 Rocket 3.8 16:10:58 10° WSW 16:16:00 32° NW 16:21:03 10° NNE
Cosmos 1340 4.0 16:14:50 10° SE 16:17:34 20° E 16:19:58 12° NE
ERS-2 3.3 16:16:09 10° NE 16:19:08 23° E 16:22:05 10° SSE
Cosmos 1455 2.3 16:15:58 10° N 16:19:43 52° ENE 16:23:27 10° SSE
COSMOS 2455 3.2 16:14:36 10° SW 16:20:36 70° NW 16:26:39 10° NNE
ARGOS 4.1 16:18:01 10° ESE 16:22:18 25° ENE 16:26:35 10° N
CZ-4 R/B 2.1 16:18:50 10° SE 16:22:25 31° ENE 16:25:58 10° N
Cosmos 1602 Rocket 4.3 16:21:33 10° SSE 16:25:22 31° E 16:29:15 10° NNE
H-2A R/B 2.6 16:21:54 10° N 16:26:17 61° WNW 16:30:32 10° SSW
Cosmos 1818 3.6 16:21:00 10° SW 16:26:26 87° NW 16:31:57 10° NE
Okean O Rocket 2.5 16:24:01 10° S 16:28:21 54° W 16:32:43 10° NNW
TELKOM 3 3.6 16:26:24 10° W 16:28:34 40° N 16:29:42 23° NE
YAOGAN 1 3.2 16:26:37 10° SE 16:30:30 34° ENE 16:34:25 10° N
CZ-2C R/B 4.1 16:29:02 15° ENE 16:31:05 18° E 16:34:44 10° SE
Cosmos 1892 Rocket 4.2 16:27:25 10° SSW 16:31:41 57° WNW 16:35:58 10° N
Okean-O 3.1 16:28:37 10° SE 16:32:42 38° ENE 16:36:47 10° N
NOSS 3-1 (C) 4.1 16:26:22 10° NW 16:33:38 60° NE 16:42:05 10° SE
CZ-2C R/B 3.2 16:28:52 10° SSE 16:34:12 67° ENE 16:39:50 10° N
SJ 16-02 1.4 16:33:37 10° SSW 16:38:00 81° WNW 16:42:27 10° NNE
Meteor 2-1 Rocket 4.1 16:32:56 10° N 16:38:31 85° E 16:44:01 10° SSE
Cosmos 2112 Rocket 4.0 16:33:52 10° NNW 16:39:02 56° ENE 16:44:08 10° SE
Aureole 2 Rocket 3.9 16:40:51 10° SW 16:43:36 30° WNW 16:46:26 10° N
Cosmos 1812 Rocket 3.7 16:39:31 10° N 16:43:47 47° ENE 16:47:58 10° SSE
Cosmos 44 3.3 16:42:58 10° SSW 16:47:42 67° ESE 16:51:24 18° NE
COSMOS 2406 3.7 16:42:22 10° NNW 16:47:47 39° NE 16:52:13 15° ESE
NOSS 2-1 (C) 3.0 16:46:04 10° SSW 16:49:20 52° SE 16:50:33 32° ENE
SKYMED 2 3.6 16:45:02 10° NNE 16:49:23 87° WNW 16:53:44 10° SSW
Cosmos 1833 Rocket 3.3 16:44:37 10° NNW 16:49:45 35° NE 16:52:53 20° ESE
CZ-4B R/B 1.8 16:48:43 10° N 16:52:02 61° WNW 16:55:15 10° SSW
Cosmos 1703 3.1 16:48:22 10° S 16:52:13 68° E 16:56:05 10° NNE
SAR-Lupe-4 3.8 16:50:23 23° NE 16:52:18 45° E 16:55:44 10° S
USA 229 DEB 4.0 16:45:40 10° NW 16:52:49 58° NE 16:59:54 12° ESE
USA 229 4.0 16:45:46 10° NW 16:52:55 57° NE 16:59:52 12° ESE
SL-08 RB Rocket 4.5 16:54:20 28° ENE 16:54:46 28° ENE 16:58:36 10° N
NOSS 2-1 (D) 2.8 16:51:55 10° SSW 16:55:14 62° SE 16:56:19 37° ENE
Cosmos 1092 Rocket 3.9 16:49:35 10° S 16:55:43 69° E 17:01:50 10° NNE
X-37B 0.7 16:53:08 10° W 16:56:17 70° S 16:57:10 43° ESE
Cosmos 990 Rocket 3.9 16:52:44 10° SSW 16:57:55 74° ESE 17:02:44 12° NNE
Cosmos 1844 4.0 16:53:25 10° SW 16:59:03 71° WNW 17:04:50 10° NNE
Cosmos 2082 Rocket 3.2 16:55:42 10° N 17:00:27 26° NE 17:01:10 25° ENE
OE (NEXTSAT) 4.3 16:58:40 10° W 17:02:07 80° S 17:03:01 46° ESE
MOS 1 Rocket 3.2 17:02:31 10° N 17:06:49 74° WNW 17:11:05 10° SSW
Cosmos 1844 Rocket 3.5 17:02:47 10° SW 17:08:17 50° WNW 17:13:47 10° NNE
NOSS 3-1 (A) 4.1 17:01:05 10° NW 17:08:24 62° NE 17:15:12 17° ESE
SAR-Lupe-1 3.9 17:06:51 28° NNE 17:08:37 72° ESE 17:12:11 10° S
Cosmos 1689 Rocket 2.2 17:15:07 60° SSW 17:15:07 60° SSW 17:17:30 10° SSW
Helios 1A Rocket 2.8 17:12:40 10° SSE 17:16:48 80° ENE 17:20:58 10° NNW
Cosmos 1626 Rocket 4.4 17:16:58 10° SSW 17:21:14 50° WNW 17:25:34 10° N
Cosmos 858 Rocket 4.4 17:17:27 10° SSW 17:22:42 73° ESE 17:25:33 28° NNE
Meteor 2-19 Rocket 4.4 17:17:34 10° S 17:23:39 66° E 17:29:46 10° NNE
DMSP B5D1-3 4.4 17:21:45 10° NNE 17:26:49 77° ESE 17:31:55 10° S
Cosmos 2278 Rocket 2.3 17:22:10 10° S 17:27:37 50° ESE 17:28:30 46° E
Cosmos 405 3.0 17:25:48 10° NNW 17:29:21 79° W 17:29:22 79° WSW
CSL-04 Rocket 3.5 17:24:41 10° SSE 17:30:05 80° ENE 17:35:37 10° NNW
Cosmos 1328 4.3 17:26:30 10° SSW 17:30:26 60° W 17:33:29 16° N
USA 234 3.9 17:29:31 31° NE 17:31:33 39° NNE 17:37:31 10° NW
ATLAS 5 CENTAUR R/B 4.1 17:29:46 10° NW 17:31:50 13° NNW 17:33:39 11° N
Iridium 4 Rocket 3.8 17:28:24 10° N 17:33:58 72° W 17:39:01 10° S
Lacrosse 5 4.2 17:32:55 10° WNW 17:36:42 22° WSW 17:40:29 10° S
COSMO-SKYMED 1 4.5 17:33:32 10° N 17:37:18 29° WNW 17:41:02 10° SW
Cosmos 1898 Rocket 4.0 17:34:22 10° SW 17:39:34 60° WNW 17:43:16 19° N
Meteor 1-11 4.1 17:35:22 10° S 17:41:04 90° ESE 17:46:45 10° N
Cosmos 1417 Rocket 4.3 17:37:35 10° N 17:43:49 72° E 17:50:05 10° SSE
Aureole 3 Rocket 3.5 17:41:03 10° NNW 17:44:02 43° W 17:47:30 10° SSW
CZ-4C R/B 4.4 17:40:43 10° NW 17:44:42 17° N 17:46:31 16° NNE
Cosmos 2026 Rocket 4.3 17:38:56 10° SSW 17:45:01 67° W 17:51:14 10° N
Cosmos 1758 Rocket 3.8 17:41:01 10° SSW 17:45:27 69° W 17:47:30 31° N
Meteor 2-15 4.5 17:39:19 10° N 17:45:30 81° W 17:51:39 10° S
Cosmos 1553 Rocket 3.9 17:41:13 10° N 17:47:40 86° E 17:54:01 10° S
NOSS 2-1 (E) 4.4 17:47:17 10° WSW 17:49:50 36° WNW 17:49:50 36° WNW
ISS -1.7 17:47:33 10° WNW 17:49:25 24° NW 17:49:25 24° NW
H-2A R/B 3.1 17:46:52 10° S 17:51:39 45° W 17:56:35 10° NNW
ERS-2 4.2 17:50:25 15° NNW 17:52:38 26° WNW 17:55:41 10° SW
Cosmos 1340 4.5 17:49:37 10° SW 17:52:57 30° WNW 17:54:46 20° NNW
Cosmos-2242 3.6 17:53:13 10° NNW 17:57:26 55° W 17:59:06 33° SSW
CZ-4 R/B 3.7 17:54:06 10° SSW 17:57:27 24° W 18:00:46 10° NW
Cosmos 372 Rocket 4.1 17:54:14 10° SSW 17:58:33 62° S 17:58:33 62° S
Cosmos 1655 Rocket 4.3 17:54:30 10° S 18:08:42 - NNE 17:59:01 48° SSE
ARGOS 3.8 17:57:00 10° S 18:02:13 53° W 18:07:30 10° NNW
USA 281 4.5 18:07:21 25° NNE 18:07:21 25° NNE 18:10:40 10° N
Cosmos 1937 Rocket 4.4 18:03:29 10° SW 18:08:36 47° WNW 18:10:47 30° N
S3M 3.8 18:05:38 10° N 18:11:46 89° W 18:12:25 73° S
CZ-2C R/B 2.8 18:10:30 51° N 18:11:55 74° WNW 18:17:31 10° SSW
SJ 16-02 4.3 18:15:59 10° WNW 18:17:22 11° NW 18:18:45 10° NNW
COSMOS 2406 4.5 18:26:47 10° NW 18:32:05 38° WSW 18:34:24 27° SSW
Cosmos 1833 Rocket 3.7 18:28:31 10° NW 18:33:46 42° WSW 18:34:40 39° SW
USA 267 4.2 18:41:52 36° SSW 18:41:52 36° SSW 18:45:39 10° SW
Cosmos 2082 Rocket 3.3 18:39:20 10° NNW 18:43:03 40° NW 18:43:03 40° NW
Cosmos 2278 Rocket 4.0 19:06:56 10° WSW 19:10:25 27° WNW 19:10:25 27° WNW
USA 234 4.4 19:16:51 37° NW 19:16:51 37° NW 19:20:35 10° NW
